This demonstration page uses our WeatherBlox Daily Observations layout. Learn more.

41.55636, -103.73856

Hourly Observations for November 17, 2015

Temp ( °F °C ) Dew Point ( °F °C ) Humidity (%) Winds ( mph kmh ) Pressure ( in mb ) Visibility ( mi km ) Precip ( " mm )
12:05 am 00:05 Cloudy with Light Snow 34 1.1 32 0 92 92 NNW 17 28 29.83 1010 1.25 2.011675 0.01 0.254
12:26 am 00:26 Mostly Cloudy with Scattered Snow Showers 34 1 30 -1 87 87 NNW 22 35 29.83 1010 1 1.60934 0 0
12:53 am 00:53 Mostly Cloudy with Scattered Snow Showers 33 0.6 31 -0.6 92 92 NNW 26 43 29.75 1007 1 1.60934 0.04 1.016
1:33 am 01:33 Windy with Snow Likely 33 0.6 30 -1.1 89 89 NNW 23 37 29.83 1010 2 3.21868 0.02 0.508
1:46 am 01:46 Windy with Snow Likely 34 1 30 -1 87 87 NNW 25 41 29.83 1010 4 6.43736 0 0
1:53 am 01:53 Windy with Snow Likely 33 0.6 29 -1.7 85 85 NNW 25 41 29.74 1007 4 6.43736 0.02 0.508
1:59 am 01:59 Windy with Snow Likely 33 0.6 29 -1.7 85 85 NNW 22 35 29.83 1010 1.75 2.816345 0 0.0254
2:14 am 02:14 Mostly Cloudy with Scattered Snow Showers 32 0 28 -2 87 87 NNW 25 41 29.83 1010 0.75 1.207005 0 0
2:27 am 02:27 Mostly Cloudy with Scattered Snow Showers 32 0 29 -1.7 88 88 NNW 26 43 29.83 1010 1 1.60934 0 0.0254
2:53 am 02:53 Windy with Snow Likely 32 0 29 -1.7 88 88 NNW 25 41 29.73 1007 1.25 2.011675 0.01 0.254
3:06 am 03:06 Windy with Snow Likely 32 0 28 -2 87 87 NW 25 41 29.8 1009 1.75 2.816345 0 0
3:16 am 03:16 Windy with Snow Likely 30 -1 28 -2 93 93 NNW 28 44 29.85 1011 2.5 4.02335 0 0
3:26 am 03:26 Windy with Snow Likely 30 -1 28 -2 93 93 NNW 26 43 29.85 1011 4 6.43736 0 0
3:53 am 03:53 Windy with Snow Likely 31 -0.6 27 -2.8 85 85 NNW 21 33 29.77 1008 6 9.65604 0 0.0254
4:53 am 04:53 Cloudy with Light Wintry Mix 31 -0.6 25 -3.9 79 79 NNW 23 37 29.78 1008 10 16.0934 0 0.0254
5:53 am 05:53 Cloudy 31 -0.6 23 -5 72 72 NW 23 37 29.77 1008 10 16.0934 0 0.0254
6:53 am 06:53 Cloudy 31 -0.6 22 -5.6 69 69 NW 21 33 29.79 1009 10 16.0934 0 0
7:53 am 07:53 Cloudy 31 -0.6 21 -6.1 67 67 NNW 21 33 29.8 1009 10 16.0934 0 0
8:53 am 08:53 Cloudy 32 0 21 -6.1 64 64 NW 23 37 29.82 1010 10 16.0934 0 0
9:53 am 09:53 Cloudy 35 1.7 22 -5.6 59 59 NNW 20 31 29.83 1010 10 16.0934 0 0
10:53 am 10:53 Partly Cloudy 35 1.7 23 -5 61 61 NNW 24 39 29.83 1010 10 16.0934 0 0
11:53 am 11:53 Cloudy 37 2.8 24 -4.4 59 59 NNW 18 30 29.79 1009 10 16.0934 0 0
12:53 pm 12:53 Sunny 42 5.6 24 -4.4 49 49 NNW 23 37 29.73 1007 10 16.0934 0 0
1:53 pm 13:53 Sunny 44 6.7 21 -6.1 40 40 NNW 23 37 29.71 1006 10 16.0934 0 0
2:53 pm 14:53 Sunny 45 7.2 16 -8.9 31 31 NNW 22 35 29.71 1006 10 16.0934 0 0
3:53 pm 15:53 Sunny 43 6.1 17 -8.3 35 35 N 16 26 29.72 1007 10 16.0934 0 0
4:53 pm 16:53 Clear 36 2.2 18 -7.8 48 48 N 9 15 29.73 1007 10 16.0934 0 0
9:53 pm 21:53 Clear 26 -3.3 17 -8.3 69 69 NNW 5 7 29.66 1004 10 16.0934 0 0
10:53 pm 22:53 Clear 25 -3.9 17 -8.3 72 72 WNW 8 13 29.62 1003 10 16.0934 0 0
11:53 pm 23:53 Clear 24 -4.4 17 -8.3 75 75 NNW 6 9 29.59 1002 10 16.0934 0 0

Powered by AerisWeather